Location: Quedlinburg
(51.7921°N, 11.1414°E)
Time: 06:22:26
(UTC+02:00)

METEOR M2 - Pass Details

Date: 18 March 2026
Orbit: 817 x 824 km, 98.5° (Epoch: 17 April)

Event Time Altitude Azimuth Distance (km) Brightness Sun altitude
Rises 02:56:46 0° 30° (NNE) 3,373 ? -29.9°
Reaches altitude 10° 03:00:54 10° 61° (ENE) 2,433 ? -29.5°
Maximum altitude 03:02:52 12° 83° (E) 2,294 ? -29.3°
Drops below altitude 10° 03:04:50 10° 105° (ESE) 2,426 ? -29.0°
Sets 03:08:56 0° 136° (SE) 3,350 ? -28.6°
